DECAYED

CZ-6A DEB, 60869 (Decayed)

Orbit data source: Space-Track

CZ-6A DEB, 60869 was space debris in LEO originally from a launch on Tue, 06 Aug 2024 UTC launched from the Taiyaun Space Center, China (TSC). Debris objects in space refer to the collection of defunct objects orbiting the Earth. Examples of debris include non-operational satellites, rocket bodies, and fragments generated from explosions, collisions, or faulty payload assembly.

Not visible in the next 10 days
Identifier
60869, 2024-140JY
Orbit
Decayed
Country
Flag of CNCN / PRC
Related business
Manufacturer
SAST
Mission
Decayed spacecraft
Bus & Motor
Unknown
Mass
Unknown
Launch date (UTC)
2024-08-06 (2 years ago)
Launch vehicle
Unknown
Launch site
Taiyaun Space Center, China (TSC)
Object type
Payload
Rocket body
Debris
Shape & HBR
Unknown shape, 1.1 m
Radar Cross Section
Medium (>0.1 m² and <1 m²)

Expand to show TLE details & history
Last TLE update: 1 year ago

TLE from 1 year ago
0 CZ-6A DEB
1 60869U 24140JY  25001.59821602  .22234927 -12237-5  10450-1 0  9994
2 60869  88.9808 332.4445 0021086 199.9818 160.0659 16.21061754 21013
Epoch: 2025-01-01T14:21Z
TLE epoch observation values (Epoch: 2025-01-01T14:21:25.864Z)
Latitude
Longitude
15.59754°
Altitude
233.085 km
Speed
7.759 km/s
True Right ascension
22h 09m 46s
True Declination
0° 00' 00"
Sunlit
Object was in daylight at epoch
Visualization orbit readout
Latitude
Unknown
Longitude
Unknown
Altitude
Unknown
Speed
Unknown
Apparent Right ascension
Unknown
Apparent Declination
Unknown
Sunlit
N/A
Visualization observer readout
Local Sidereal Time
07:20:19
Azimuth
Unknown
Elevation
Unknown
Doppler factor
Unknown
Orbital elements
Apogee altitude
227.239 km
Perigee altitude
199.441 km
Semi-major axis
6,591.477 km
Eccentricity
0.00211
Inclination
88.9808°
RAAN
332.4445°
Arg. of periapsis
199.9818°
True anomaly
160.14808°
Mean anomaly
160.0659°
Eccentric anomaly
160.10701°
Mean motion
4.05573 °/min
Orbital period
88.76 mins
BSTAR
0.01045
Loading maneuver chart data...
Computing Atmospheric mass density...
Loading historical data...
Loading historical data...
Loading historical data...
Loading historical data...
Loading historical data...
Loading historical data...
Loading historical data...

Documentation

Showing up to 5 results
|